map of LPX home
LPX - Airport
Location
City:  Liepaya, Latvia
Name:Liepaya International Airport
ICAO:EVLA
IATA:LPX

Details
Type:Airport (Aerodrome, Airfield)
Use:Public/Civil, International (customs port of entry)
Latitude:5631'03"N (56.517500)
Longitude:2105'49"E (21.096944)
Datum:WGS 1984
Elevation:16 ft (5 m)
Variation:6.92E (WMM2015v2 magnetic declination)
0.18 annual change
Runways:1
Longest:6568 × 131 ft (2002 × 40 m), paved

Time
Time Zone:UTC+2 (DST+3)
Local Time:

Weather
METAR:EVLA 041350Z AUTO 27005KT 230V310 9999 OVC020/// 00/M03 Q1023
TAF:EVLA 041402Z 0415/0515 22010KT 9999 BKN015 OVC020
TEMPO 0423/0506 21017G28KT
TEMPO 0506/0512 20020G30KT BKN010 OVC020
TEMPO 0512/0515 20020G30KT 3000 -SNRA BKN005 OVC010

Related Locations
Nearby:
Farthest:CHT: 11266 mi / 18131 km
Waitangi [Tuuta], CIT, NZ

Find:

   beyond  
but within

Other Information
Maps:
NOTAMs:
Links:
Sources:

  
  • flag of Latvia
  

Sectional Chart

Flight Planning
at skyvector.com

Satellite Image

Google Maps Satellite view

 

Copyright © 2004-2019 Karl L. Swartz. All rights reserved.
The Great Circle Mapper name and logo are trademarks of the Great Circle Mapper.
All other trademarks mentioned herein belong to their respective owners.
Please see credits for attibutions and further copyright information.

  Follow gcmap on Facebook Follow gcmap on Twitter GCmap on LinkedIn

hCard Microformat

Geo Microformat